{"data":{"norad_id":60123,"epoch":"2026-05-25T03:10:02.246016Z","epoch_age_seconds":60674,"freshness":"FRESH","line1":"1 60123U 24118L   26145.13197044  .00010453  00000+0  91031-4 0  9995","line2":"2 60123  53.1582 204.1174 0001219  78.2861 281.8293 15.69709177110009","mean_motion":15.69709177,"eccentricity":0.0001219,"inclination_deg":53.1582,"raan_deg":204.1174,"arg_perigee_deg":78.2861,"mean_anomaly_deg":281.8293,"bstar":9.1031e-5,"rev_number":11000,"period_min":91.736738314297,"perigee_km":358.90775965352,"apogee_km":360.55045141005,"semimajor_km":6737.8661055318,"source":"CELESTRAK","updated_at":"2026-05-25T13:38:19.167545Z"}}